Rawlins, WY

1:28 AM MDT on July 22, 2017 (GMT -0600)
Rawlins Municipal

Weather History for KRWL - December, 2013

Change the Weather History Date:

Tuesday, December 10, 2013

  Actual Average Record
Temperature  
Mean Temperature 12 °F 21 °F  
Max Temperature 18 °F 31 °F 55 °F (1990)
Min Temperature 6 °F 12 °F -27 °F (1972)
Degree Days  
Heating Degree Days 53 44  
Month to date heating degree days 550 427  
Since 1 July heating degree days 2534 2533  
Cooling Degree Days 0 0  
Month to date cooling degree days 0 0  
Year to date cooling degree days 371 186  
Moisture  
Dew Point 5 °F    
Average Humidity 67    
Maximum Humidity 73    
Minimum Humidity 61    
Precipitation  
Precipitation 0.00 in 0.02 in 0.15 in (1985)
Month to date precipitation 0.26 0.14  
Year to date precipitation 8.08 8.96  
Sea Level Pressure  
Sea Level Pressure 30.16 in    
Wind  
Wind Speed 26 mph (WSW)    
Max Wind Speed 43 mph    
Max Gust Speed 53 mph    
Visibility 5 miles    
Events Snow    
T = Trace of Precipitation, MM = Missing Value Source: NWS Daily Summary

Daily Weather History Graph

Daily Weather History Graph

Search for Another Location

Airport or City:

Trip Planner

Search our weather history database for the weather conditions in past years. The results will help you decide how hot, cold, wet, or windy it might be!

Date:

Astronomy

Dec. 10, 2013 Rise Set
Actual Time 7:25 AM MST 4:37 PM MST
Civil Twilight 6:54 AM MST 5:09 PM MST
Nautical Twilight 6:19 AM MST 5:44 PM MST
Astronomical Twilight 5:45 AM MST 6:18 PM MST
Moon 12:45 PM MST (12/10) 12:41 AM MST (12/10)
Length of Visible Light 10h 15m
Length of Day
9h 12m
Waxing Gibbous, 62% of the Moon is Illuminated
Dec 10
Waxing Gibbous
Dec 17
Full
Dec 25
Last Quarter
Jan 1
New
Jan 7
First Quarter

Hourly Weather History & Observations

Time (MST) Temp. Windchill Dew Point Humidity Pressure Visibility Wind Dir Wind Speed Gust Speed Precip Events Conditions
12:53 AM 8.1 °F -11.2 °F -2.0 °F 64% 30.43 in 10.0 mi SW 19.6 mph 26.5 mph N/A   Overcast
1:53 AM 6.1 °F -7.8 °F -4.0 °F 63% 30.45 in 10.0 mi WSW 9.2 mph 21.9 mph N/A   Overcast
2:00 AM 6.8 °F -3.5 °F -4.0 °F 61% 30.16 in 10.0 mi Variable 5.8 mph - N/A   Overcast
2:53 AM 9.0 °F -11.0 °F -0.9 °F 64% 30.40 in 10.0 mi SW 21.9 mph 35.7 mph N/A   Scattered Clouds
3:14 AM 10.4 °F -11.0 °F 1.4 °F 67% 30.12 in 8.0 mi SW 27.6 mph 38.0 mph N/A   Mostly Cloudy
3:53 AM 12.0 °F -9.2 °F 1.9 °F 64% 30.34 in 9.0 mi SW 28.8 mph 40.3 mph N/A   Overcast
4:35 AM 10.4 °F -13.2 °F 3.2 °F 73% 30.06 in 2.5 mi SW 35.7 mph 47.2 mph N/A Snow Blowing Snow
4:53 AM 12.0 °F -10.7 °F 3.9 °F 70% 30.31 in 2.5 mi SW 34.5 mph 47.2 mph N/A Snow Blowing Snow
5:08 AM 12.2 °F -9.6 °F 3.2 °F 67% 30.04 in 3.0 mi SW 31.1 mph 47.2 mph N/A Snow Blowing Snow
5:17 AM 12.2 °F -12.1 °F 3.2 °F 67% 30.03 in 1.8 mi SW 41.4 mph 50.6 mph N/A Snow Blowing Snow
5:53 AM 12.9 °F -7.6 °F 5.0 °F 71% 30.30 in 2.0 mi WSW 27.6 mph 46.0 mph N/A Snow Blowing Snow
6:01 AM 12.2 °F -8.6 °F 3.2 °F 67% 30.06 in 9.0 mi WSW 27.6 mph 35.7 mph N/A   Overcast
6:40 AM 12.2 °F -10.2 °F 5.0 °F 73% 30.04 in 3.0 mi WSW 33.4 mph 46.0 mph N/A Snow Blowing Snow
6:48 AM 12.2 °F -11.0 °F 5.0 °F 73% 30.04 in 2.0 mi WSW 36.8 mph 49.5 mph N/A Snow Blowing Snow
6:53 AM 12.9 °F -9.5 °F 3.9 °F 67% 30.28 in 2.0 mi WSW 34.5 mph 49.5 mph N/A Snow Blowing Snow
7:18 AM 12.2 °F -10.8 °F 3.2 °F 67% 30.02 in 1.8 mi SW 35.7 mph 52.9 mph N/A Snow Blowing Snow
7:25 AM 12.2 °F -9.6 °F 3.2 °F 67% 30.03 in 2.5 mi WSW 31.1 mph 48.3 mph N/A Snow Blowing Snow
7:28 AM 12.2 °F -9.6 °F 3.2 °F 67% 30.05 in 3.0 mi WSW 31.1 mph 48.3 mph N/A Snow Blowing Snow
7:38 AM 12.2 °F -9.3 °F 3.2 °F 67% 30.03 in 5.0 mi WSW 29.9 mph 41.4 mph N/A   Haze
7:53 AM 12.9 °F -8.3 °F 3.9 °F 67% 30.27 in 5.0 mi WSW 29.9 mph 40.3 mph N/A   Haze
8:31 AM 14.0 °F -7.7 °F 5.0 °F 67% 30.03 in 2.0 mi SW 33.4 mph 44.9 mph N/A Snow Blowing Snow
8:53 AM 15.1 °F -4.7 °F 5.0 °F 64% 30.25 in 4.0 mi WSW 27.6 mph 43.7 mph N/A   Haze
9:09 AM 15.8 °F -4.7 °F 6.8 °F 68% 30.02 in 2.5 mi WSW 31.1 mph 44.9 mph N/A Snow Blowing Snow
9:22 AM 15.8 °F -3.7 °F 6.8 °F 68% 30.01 in 5.0 mi WSW 27.6 mph 38.0 mph N/A   Haze
9:53 AM 15.1 °F -4.4 °F 6.1 °F 68% 30.24 in 4.0 mi WSW 26.5 mph 41.4 mph N/A   Haze
10:08 AM 15.8 °F -5.8 °F 6.8 °F 68% 30.02 in 1.8 mi WSW 35.7 mph 44.9 mph N/A Snow Blowing Snow
10:43 AM 17.6 °F -1.0 °F 6.8 °F 63% 30.05 in 3.0 mi WSW 26.5 mph 41.4 mph N/A Snow Blowing Snow
10:53 AM 17.1 °F -2.4 °F 6.1 °F 62% 30.25 in 4.0 mi WSW 28.8 mph 43.7 mph N/A   Haze
11:29 AM 15.8 °F -5.8 °F 6.8 °F 68% 30.02 in 2.0 mi WSW 35.7 mph 49.5 mph N/A Snow Blowing Snow
11:49 AM 15.8 °F -4.1 °F 6.8 °F 68% 30.01 in 4.0 mi WSW 28.8 mph 42.6 mph N/A Snow Blowing Snow
11:53 AM 16.0 °F -5.0 °F 6.1 °F 65% 30.22 in 4.0 mi WSW 33.4 mph 42.6 mph N/A   Haze
12:53 PM 17.1 °F -3.8 °F 7.0 °F 65% 30.21 in 1.8 mi WSW 34.5 mph 46.0 mph 0.00 in Snow Light Snow
1:03 PM 17.6 °F -1.9 °F 8.6 °F 68% 30.00 in 0.8 mi WSW 29.9 mph 50.6 mph 0.00 in Snow Light Snow
1:10 PM 17.6 °F -2.5 °F 6.8 °F 63% 29.99 in 1.8 mi WSW 32.2 mph 41.4 mph 0.00 in Snow Light Snow
1:13 PM 17.6 °F -1.6 °F 6.8 °F 63% 30.00 in 3.0 mi WSW 28.8 mph 41.4 mph 0.00 in Snow Light Snow
1:33 PM 17.6 °F -3.1 °F 6.8 °F 63% 29.98 in 2.0 mi WSW 34.5 mph 48.3 mph 0.00 in Snow Blowing Snow
1:53 PM 17.1 °F -3.5 °F 8.1 °F 68% 30.18 in 2.0 mi WSW 33.4 mph 47.2 mph 0.00 in Snow Blowing Snow
2:33 PM 17.6 °F -3.3 °F 8.6 °F 68% 29.98 in 3.0 mi WSW 35.7 mph 46.0 mph N/A Snow Blowing Snow
2:40 PM 17.6 °F -2.8 °F 8.6 °F 68% 29.99 in 2.0 mi WSW 33.4 mph 51.8 mph N/A Snow Blowing Snow
2:48 PM 17.6 °F -3.1 °F 8.6 °F 68% 30.00 in 3.0 mi WSW 34.5 mph 42.6 mph N/A   Haze
2:53 PM 17.1 °F -2.4 °F 8.1 °F 68% 30.21 in 4.0 mi WSW 28.8 mph 42.6 mph N/A Snow Blowing Snow
3:25 PM 17.6 °F -1.9 °F 8.6 °F 68% 30.01 in 5.0 mi WSW 29.9 mph 42.6 mph N/A   Haze
3:53 PM 16.0 °F -2.8 °F 7.0 °F 68% 30.20 in 6.0 mi WSW 25.3 mph 42.6 mph N/A   Haze
4:53 PM 16.0 °F -2.8 °F 6.1 °F 65% 30.22 in 10.0 mi WSW 25.3 mph 35.7 mph N/A   Clear
5:53 PM 17.1 °F -1.4 °F 7.0 °F 65% 30.25 in 10.0 mi WSW 25.3 mph 35.7 mph N/A   Partly Cloudy
6:53 PM 16.0 °F 1.1 °F 7.0 °F 68% 30.34 in 10.0 mi West 15.0 mph 23.0 mph N/A   Overcast
7:53 PM 14.0 °F -5.1 °F 6.1 °F 71% 30.34 in 10.0 mi WSW 24.2 mph - N/A   Clear
8:53 PM 14.0 °F -5.1 °F 6.1 °F 71% 30.35 in 10.0 mi West 24.2 mph - N/A   Clear
9:53 PM 12.9 °F -4.4 °F 5.0 °F 71% 30.39 in 10.0 mi WSW 18.4 mph - N/A   Clear
10:53 PM 12.0 °F -6.5 °F 3.9 °F 70% 30.38 in 10.0 mi WSW 20.7 mph - N/A   Clear
11:53 PM 12.0 °F -5.1 °F 3.9 °F 70% 30.41 in 10.0 mi WSW 17.3 mph - N/A   Clear